Photometre #549[NE_1.6_Dp] Berlin_FUB AOT

File : 20200925_549.hum

25/09/2020,05:57:48,TEMP=12.1,BA=5.64,STAT.A=7.0,ExtBa=13.79
25/09/2020,06:11:25,TEMP=12.1,BA=5.60,STAT.A=7.0,ExtBa=13.78
25/09/2020,06:25:01,TEMP=12.2,BA=5.60,STAT.A=7.0,ExtBa=13.80
25/09/2020,06:38:38,TEMP=12.3,BA=5.60,STAT.A=7.0,ExtBa=13.80
25/09/2020,06:52:15,TEMP=12.5,BA=5.60,STAT.A=7.0,ExtBa=13.80
25/09/2020,07:05:51,TEMP=12.6,BA=5.60,STAT.A=7.0,ExtBa=13.80
25/09/2020,07:19:27,TEMP=12.7,BA=5.60,STAT.B=7.0,ExtBa=13.81
25/09/2020,07:33:03,TEMP=12.8,BA=5.60,STAT.A=7.0,ExtBa=13.81
25/09/2020,07:46:40,TEMP=12.8,BA=5.60,STAT.A=7.0,ExtBa=13.81
25/09/2020,08:00:16,TEMP=12.8,BA=5.60,STAT.A=7.0,ExtBa=13.80
25/09/2020,08:13:52,TEMP=12.9,BA=5.60,STAT.A=7.0,ExtBa=13.80
25/09/2020,08:15:57,TEMP=13.2,BA=5.60,STAT.C=6.5,ExtBa=13.74
25/09/2020,08:18:02,TEMP=13.3,BA=5.60,STAT.A=6.5,ExtBa=13.70
25/09/2020,08:31:38,TEMP=13.0,BA=5.60,STAT.A=7.0,ExtBa=13.76
25/09/2020,08:45:14,TEMP=13.2,BA=5.60,STAT.A=7.0,ExtBa=13.77
25/09/2020,08:58:48,TEMP=13.2,BA=5.60,STAT.D=7.0,ExtBa=13.79
25/09/2020,09:12:22,TEMP=13.3,BA=5.60,STAT.D=7.0,ExtBa=13.79
25/09/2020,09:25:57,TEMP=13.5,BA=5.60,STAT.D=7.0,ExtBa=13.80
25/09/2020,09:39:33,TEMP=13.7,BA=5.60,STAT.F,ExtBa=13.80
25/09/2020,10:04:37,TEMP=13.8,BA=5.60,STAT.D=7.0,ExtBa=13.82
25/09/2020,10:18:10,TEMP=13.9,BA=5.60,STAT.D=7.0,ExtBa=13.80
25/09/2020,10:31:43,TEMP=13.9,BA=5.60,STAT.D=7.0,ExtBa=13.79
25/09/2020,10:45:19,TEMP=13.9,BA=5.60,STAT.F,ExtBa=13.79
25/09/2020,10:58:51,TEMP=13.8,BA=5.60,STAT.D=7.0,ExtBa=13.80
25/09/2020,10:59:15,TEMP=13.8,BA=5.60,STAT.h
25/09/2020,10:59:24,TEMP=13.8,BA=5.60,STAT.h
25/09/2020,10:59:25,TEMP=13.8,BA=5.60,STAT.h
25/09/2020,10:59:26,TEMP=13.8,BA=5.60,STAT.h
25/09/2020,10:59:27,TEMP=13.8,BA=5.60,STAT.h
25/09/2020,10:59:28,TEMP=13.8,BA=5.60,STAT.h
25/09/2020,10:59:29,TEMP=13.8,BA=5.60,STAT.h
25/09/2020,11:13:26,TEMP=13.8,BA=5.60,STAT.h
25/09/2020,11:13:27,TEMP=13.8,BA=5.60,STAT.h
25/09/2020,11:28:26,TEMP=13.8,BA=5.64,STAT.h
25/09/2020,11:28:27,TEMP=13.8,BA=5.64,STAT.h
25/09/2020,11:43:26,TEMP=13.8,BA=5.60,STAT.h
25/09/2020,11:43:27,TEMP=13.8,BA=5.60,STAT.h
25/09/2020,11:58:26,TEMP=13.8,BA=5.60,STAT.h
25/09/2020,11:58:27,TEMP=13.8,BA=5.60,STAT.h
25/09/2020,12:13:26,TEMP=13.8,BA=5.60,STAT.h
25/09/2020,12:13:27,TEMP=13.8,BA=5.60,STAT.h
25/09/2020,12:28:26,TEMP=13.8,BA=5.64,STAT.h
25/09/2020,12:28:27,TEMP=13.8,BA=5.64,STAT.h
25/09/2020,12:43:26,TEMP=13.8,BA=5.60,STAT.h
25/09/2020,12:43:27,TEMP=13.8,BA=5.60,STAT.h
25/09/2020,12:58:26,TEMP=13.8,BA=5.64,STAT.h
25/09/2020,12:58:27,TEMP=13.8,BA=5.64,STAT.h
25/09/2020,13:13:47,TEMP=14.8,BA=5.60,STAT.D=7.0,ExtBa=13.81
25/09/2020,13:28:48,TEMP=14.6,BA=5.60,STAT.D=7.0,ExtBa=13.80
25/09/2020,13:43:48,TEMP=15.0,BA=5.60,STAT.D=7.0,ExtBa=13.79
25/09/2020,13:58:49,TEMP=15.4,BA=5.60,STAT.F,ExtBa=13.80
25/09/2020,14:23:19,TEMP=16.0,BA=5.60,STAT.A=7.0,ExtBa=13.35
25/09/2020,14:36:59,TEMP=15.8,BA=5.60,STAT.A=7.0,ExtBa=13.54
25/09/2020,14:50:40,TEMP=16.1,BA=5.60,STAT.A=7.0,ExtBa=13.66
25/09/2020,15:04:22,TEMP=17.3,BA=5.60,STAT.C=7.0,ExtBa=13.72
25/09/2020,15:33:56,TEMP=17.2,BA=5.60,STAT.A=7.0,ExtBa=13.16
25/09/2020,15:47:35,TEMP=15.8,BA=5.60,STAT.A=7.0,ExtBa=13.37
25/09/2020,16:01:14,TEMP=15.0,BA=5.60,STAT.A=7.0,ExtBa=13.52
25/09/2020,16:14:53,TEMP=15.2,BA=5.60,STAT.A=7.0,ExtBa=13.61
25/09/2020,16:28:34,TEMP=14.5,BA=5.60,STAT.B=7.0,ExtBa=13.65
25/09/2020,16:39:24,TEMP=14.3,BA=5.60,STAT.A=7.0,ExtBa=13.01
25/09/2020,16:42:16,TEMP=14.1,BA=5.56,STAT.A=7.0,ExtBa=12.81
25/09/2020,16:55:53,TEMP=13.0,BA=5.60,STAT.A=7.0,ExtBa=13.17